Location: Favalello
(42.2939°N, 9.2706°E)
Time: 07:30:51
(UTC+00:00)

NOSS 0 Rocket - Pass Details

Date: 06 December 2019
Orbit: 934 x 956 km, 70.0° (Epoch: 26 January)

Event Time Altitude Azimuth Distance (km) Brightness Sun altitude
Rises 17:06:55 0° 196° (SSW) 3,592 7.5 -13.7°
Reaches altitude 10° 17:09:25 10° 194° (SSW) 2,654 6.7 -14.1°
Maximum altitude 17:15:33 70° 112° (ESE) 1,009 3.9 -15.2°
Enters shadow 17:21:05 13° 31° (NNE) 2,449 5.7 -16.2°
